This is the latest recevied weather packets stored in our database for station/object KC5TIL-3. If no packets are shown the sender has not sent any weather packets the latest 10 day(s).
| Time | Temp. | Humidity | Pressure | Rain* | Wind** | Luminosity | Snow |
|---|---|---|---|---|---|---|---|
| 1777991299 | 22.78° C | 59% | 1002.8 hPa | 0 mm | 5.81 m/s, 214° | - | - |
| 1777990998 | 23.33° C | 60% | 1002.8 hPa | 0 mm | 4.47 m/s, 195° | - | - |
| 1777989504 | 22.78° C | 61% | 1002.8 hPa | 0 mm | 5.36 m/s, 173° | - | - |
| 1777989203 | 22.78° C | 61% | 1002.8 hPa | 0 mm | 4.47 m/s, 139° | - | - |
| 1777988906 | 22.78° C | 62% | 1002.8 hPa | 0 mm | 4.92 m/s, 176° | - | - |
| 1777988607 | 22.78° C | 62% | 1002.8 hPa | 0 mm | 4.47 m/s, 167° | - | - |
| 1777988305 | 22.78° C | 63% | 1002.8 hPa | 0 mm | 6.71 m/s, 225° | - | - |
| 1777987709 | 22.78° C | 64% | 1002.8 hPa | 0 mm | 5.36 m/s, 199° | - | - |
| 1777987408 | 22.78° C | 64% | 1002.8 hPa | 0 mm | 4.92 m/s, 189° | - | - |
| 1777987110 | 22.22° C | 65% | 1001.8 hPa | 0 mm | 5.36 m/s, 262° | - | - |
| 1777986807 | 22.22° C | 65% | 1001.8 hPa | 0 mm | 5.36 m/s, 236° | - | - |
| 1777985904 | 22.22° C | 67% | 1002.8 hPa | 0 mm | 6.71 m/s, 238° | - | - |
| 1777985603 | 22.22° C | 67% | 1002.8 hPa | 0 mm | 4.92 m/s, 230° | - | - |
| 1777985300 | 22.22° C | 68% | 1001.8 hPa | 0 mm | 4.02 m/s, 187° | - | - |
| 1777984998 | 22.22° C | 68% | 1001.8 hPa | 0 mm | 4.47 m/s, 227° | - | - |
| 1777984696 | 22.22° C | 68% | 1001.8 hPa | 0 mm | 5.81 m/s, 208° | - | - |
| 1777984398 | 22.22° C | 68% | 1001.8 hPa | 0 mm | 4.47 m/s, 147° | - | - |
| 1777984100 | 22.22° C | 68% | 1001.8 hPa | 0 mm | 5.36 m/s, 178° | - | - |
| 1777983799 | 22.22° C | 68% | 1001.8 hPa | 0 mm | 4.47 m/s, 204° | - | - |
| 1777982901 | 22.22° C | 69% | 1001.8 hPa | 0 mm | 4.47 m/s, 230° | - | - |
| 1777982603 | 22.22° C | 69% | 1001.8 hPa | 0 mm | 4.92 m/s, 158° | - | - |
| 1777982305 | 22.22° C | 69% | 1001.8 hPa | 0 mm | 4.02 m/s, 219° | - | - |
| 1777982003 | 22.22° C | 70% | 1001.8 hPa | 0 mm | 6.26 m/s, 192° | - | - |
| 1777981407 | 22.22° C | 70% | 1001.8 hPa | 0 mm | 5.81 m/s, 184° | - | - |
| 1777981106 | 22.22° C | 71% | 1001.8 hPa | 0 mm | 4.47 m/s, 205° | - | - |
* Rain latest hour (hover to see other rain measurements)
** Current wind speed in m/s (hover to see current wind gust speed)